STARLINK-2409, 47824

Orbit data source: Space-Track

STARLINK-2409, 47824 is a payload satellite owned by SpaceX/Seattle (US) in LEO that was launched on Thu, 11 Mar 2021 UTC via an FALCON 9 launch vehicle from the Air Force Eastern Test Range (AFETR). Payload-class satellites include a variety of spacecraft equipped with specific instruments for various scientific and technological missions. These include communications satellites like Starlink; space stations such as the ISS; scientific satellites like the Hubble; Earth observation satellites from companies like Planet Labs, Umbra, and HawkEye 360; GPS; miniature CubeSats for education and research; and military/defense satellites.

Loading next visibility...
Identifier
47824, 2021-018AP
Orbit
LEO
Country
Flag of USUS
Related business
Manufacturer
SpaceX/Seattle
Mission
Operational Commercial Communications
Bus & Motor
STARLINK, Unknown motor
Mass
260 kg wet, ~248 kg dry
Launch date (UTC)
2021-03-11 (5 years ago)
Launch vehicle
FALCON 9
Launch site
Air Force Eastern Test Range (AFETR)
Object type
Payload
Rocket body
Debris
Shape & HBR
Box + 1 Pan, 10.1 m
Radar Cross Section
13.562 m², Large (>1 m²)

Expand to show TLE details & history
Last TLE update: 11 hours ago

TLE from 11 hours ago
0 STARLINK-2409
1 47824U 21018AP  26120.02205647  .00003910  00000-0  14773-3 0  9992
2 47824  53.1555  19.3472 0001430  96.9483 263.1680 15.29358728284352
Epoch: 2026-04-30T00:31Z
TLE epoch observation values (Epoch: 2026-04-30T00:31:45.679Z)
Latitude
-0°
Longitude
153.43223°
Altitude
478.744 km
Speed
7.627 km/s
True Right ascension
01h 17m 23s
True Declination
0° 00' 00"
Sunlit
Object was in daylight at epoch
Visualization orbit readout
Latitude
Unknown
Longitude
Unknown
Altitude
Unknown
Speed
Unknown
Apparent Right ascension
Unknown
Apparent Declination
Unknown
Sunlit
N/A
Visualization observer readout
Local Sidereal Time
18:59:34
Azimuth
Unknown
Elevation
Unknown
Doppler factor
Unknown
Orbital elements
Apogee altitude
478.966 km
Perigee altitude
477.005 km
Semi-major axis
6,856.122 km
Eccentricity
0.00014
Inclination
53.1555°
RAAN
19.3472°
Arg. of periapsis
96.9483°
True anomaly
263.15173°
Mean anomaly
263.168°
Eccentric anomaly
263.15987°
Mean motion
3.82319 °/min
Orbital period
94.16 mins
BSTAR
0.00014773
Loading maneuver chart data...
Computing Atmospheric mass density...
Loading historical data...
Loading historical data...
Loading historical data...
Loading historical data...
Loading historical data...
Loading historical data...
Loading historical data...

Documentation

Showing up to 5 results
|